Time,TemperatureF,DewpointF,PressureIn,WindDirection,WindDirectionDegrees,WindSpeedMPH,WindSpeedGustMPH,Humidity,HourlyPrecipIn,Conditions,Clouds,dailyrainin,SolarRadiationWatts/m^2,SoftwareType,DateUTC
2013-04-13 00:23:00,44.0,34.0,-100.00,NW,324,11.0,16.0,69,0.00,,,0.00,0.000000,,2013-04-13 07:23:00,
2013-04-13 00:33:00,44.0,34.0,-100.00,NW,324,11.0,16.0,69,0.00,,,0.00,0.000000,,2013-04-13 07:33:00,
2013-04-13 00:43:00,44.0,34.0,-100.00,NW,324,11.0,16.0,69,0.00,,,0.00,0.000000,,2013-04-13 07:43:00,
2013-04-13 00:51:00,45.0,27.0,-100.00,NNW,346,11.0,19.0,49,0.00,,,0.00,0.000000,,2013-04-13 07:51:00,
2013-04-13 01:14:00,45.0,27.0,-100.00,NNW,346,11.0,19.0,49,0.00,,,0.00,0.000000,,2013-04-13 08:14:00,
2013-04-13 01:24:00,45.0,27.0,-100.00,NNW,346,11.0,19.0,49,0.00,,,0.00,0.000000,,2013-04-13 08:24:00,
2013-04-13 01:33:00,45.0,27.0,-100.00,NNW,346,11.0,19.0,49,0.00,,,0.00,0.000000,,2013-04-13 08:33:00,
2013-04-13 01:44:00,45.0,27.0,-100.00,NNW,346,11.0,19.0,49,0.00,,,0.00,0.000000,,2013-04-13 08:44:00,
2013-04-13 01:51:00,45.0,23.0,-100.00,North,359,12.0,21.0,42,0.00,,,0.00,0.000000,,2013-04-13 08:51:00,
2013-04-13 02:13:00,45.0,23.0,-100.00,North,359,12.0,21.0,42,0.00,,,0.00,0.000000,,2013-04-13 09:13:00,
2013-04-13 02:23:00,45.0,23.0,-100.00,North,359,12.0,21.0,42,0.00,,,0.00,0.000000,,2013-04-13 09:23:00,
2013-04-13 02:34:00,45.0,23.0,-100.00,North,359,12.0,21.0,42,0.00,,,0.00,0.000000,,2013-04-13 09:34:00,
2013-04-13 02:45:00,45.0,23.0,-100.00,North,359,12.0,21.0,42,0.00,,,0.00,0.000000,,2013-04-13 09:45:00,
2013-04-13 02:51:00,44.0,25.0,-100.00,North,350,11.0,20.0,46,0.00,,,0.00,0.000000,,2013-04-13 09:51:00,
2013-04-13 03:15:00,44.0,25.0,-100.00,North,350,11.0,20.0,46,0.00,,,0.00,0.000000,,2013-04-13 10:15:00,
2013-04-13 03:23:00,44.0,25.0,-100.00,North,350,11.0,20.0,46,0.00,,,0.00,0.000000,,2013-04-13 10:23:00,
2013-04-13 03:35:00,44.0,25.0,-100.00,North,350,11.0,20.0,46,0.00,,,0.00,0.000000,,2013-04-13 10:35:00,
2013-04-13 03:44:00,44.0,25.0,-100.00,North,350,11.0,20.0,46,0.00,,,0.00,0.000000,,2013-04-13 10:44:00,
2013-04-13 03:51:00,43.0,29.0,-100.00,NW,323,12.0,19.0,58,0.00,,,0.00,0.000000,,2013-04-13 10:51:00,
2013-04-13 04:13:00,43.0,29.0,-100.00,NW,323,12.0,19.0,58,0.00,,,0.00,0.000000,,2013-04-13 11:13:00,
2013-04-13 04:23:00,43.0,29.0,-100.00,NW,323,12.0,19.0,58,0.00,,,0.00,0.000000,,2013-04-13 11:23:00,
2013-04-13 04:33:00,43.0,29.0,-100.00,NW,323,12.0,19.0,58,0.00,,,0.00,0.000000,,2013-04-13 11:33:00,
2013-04-13 04:43:00,43.0,29.0,-100.00,NW,323,12.0,19.0,58,0.00,,,0.00,0.000000,,2013-04-13 11:43:00,
2013-04-13 04:51:00,42.0,30.0,-100.00,ENE,59,11.0,19.0,61,0.00,,,0.00,0.000000,,2013-04-13 11:51:00,
2013-04-13 05:23:00,42.0,30.0,-100.00,ENE,59,11.0,19.0,61,0.00,,,0.00,0.000000,,2013-04-13 12:23:00,
2013-04-13 05:45:00,42.0,30.0,-100.00,ENE,59,11.0,19.0,61,0.00,,,0.00,0.000000,,2013-04-13 12:45:00,
2013-04-13 05:51:00,43.0,29.0,-100.00,North,2,12.0,19.0,58,0.00,,,0.00,0.000000,,2013-04-13 12:51:00,
2013-04-13 06:24:00,43.0,29.0,-100.00,North,2,12.0,19.0,58,0.00,,,0.00,0.000000,,2013-04-13 13:24:00,
2013-04-13 06:33:00,43.0,29.0,-100.00,North,2,12.0,19.0,58,0.00,,,0.00,0.000000,,2013-04-13 13:33:00,
2013-04-13 06:45:00,43.0,29.0,-100.00,North,2,12.0,19.0,58,0.00,,,0.00,0.000000,,2013-04-13 13:45:00,
2013-04-13 06:51:00,41.0,29.0,-100.00,NE,34,13.0,19.0,62,0.00,,,0.00,5.000000,,2013-04-13 13:51:00,
2013-04-13 07:23:00,41.0,29.0,-100.00,NE,34,13.0,19.0,62,0.00,,,0.00,5.000000,,2013-04-13 14:23:00,
2013-04-13 07:35:00,41.0,29.0,-100.00,NE,34,13.0,19.0,62,0.00,,,0.00,5.000000,,2013-04-13 14:35:00,
2013-04-13 07:44:00,41.0,29.0,-100.00,NE,34,13.0,19.0,62,0.00,,,0.00,5.000000,,2013-04-13 14:44:00,
2013-04-13 07:51:00,42.0,29.0,-100.00,North,6,12.0,20.0,59,0.00,,,0.00,55.000000,,2013-04-13 14:51:00,
2013-04-13 08:26:00,42.0,29.0,-100.00,North,6,12.0,20.0,59,0.00,,,0.00,55.000000,,2013-04-13 15:26:00,
2013-04-13 08:34:00,42.0,29.0,-100.00,North,6,12.0,20.0,59,0.00,,,0.00,55.000000,,2013-04-13 15:34:00,
2013-04-13 08:43:00,42.0,29.0,-100.00,North,6,12.0,20.0,59,0.00,,,0.00,55.000000,,2013-04-13 15:43:00,
2013-04-13 08:51:00,45.0,27.0,-100.00,North,355,11.0,19.0,49,0.00,,,0.00,129.000000,,2013-04-13 15:51:00,
2013-04-13 09:24:00,45.0,27.0,-100.00,North,355,11.0,19.0,49,0.00,,,0.00,129.000000,,2013-04-13 16:24:00,
2013-04-13 09:34:00,45.0,27.0,-100.00,North,355,11.0,19.0,49,0.00,,,0.00,129.000000,,2013-04-13 16:34:00,
2013-04-13 09:44:00,45.0,27.0,-100.00,North,355,11.0,19.0,49,0.00,,,0.00,129.000000,,2013-04-13 16:44:00,
2013-04-13 09:51:00,45.0,31.0,-100.00,North,1,11.0,19.0,58,0.00,,,0.00,652.000000,,2013-04-13 16:51:00,
2013-04-13 10:19:00,45.0,31.0,-100.00,North,1,11.0,19.0,58,0.00,,,0.00,652.000000,,2013-04-13 17:19:00,
2013-04-13 10:35:00,45.0,31.0,-100.00,North,1,11.0,19.0,58,0.00,,,0.00,652.000000,,2013-04-13 17:35:00,
2013-04-13 10:43:00,45.0,31.0,-100.00,North,1,11.0,19.0,58,0.00,,,0.00,652.000000,,2013-04-13 17:43:00,
2013-04-13 10:51:00,50.0,32.0,-100.00,West,273,9.0,23.0,50,0.00,,,0.00,973.000000,,2013-04-13 17:51:00,
2013-04-13 11:32:00,50.0,32.0,-100.00,West,273,9.0,23.0,50,0.00,,,0.00,973.000000,,2013-04-13 18:32:00,
2013-04-13 11:42:00,50.0,32.0,-100.00,West,273,9.0,23.0,50,0.00,,,0.00,973.000000,,2013-04-13 18:42:00,
2013-04-13 11:51:00,50.0,28.0,-100.00,WSW,244,9.0,22.0,43,0.00,,,-99.99,1240.000000,,2013-04-13 18:51:00,
2013-04-13 12:22:00,50.0,28.0,-100.00,WSW,244,9.0,22.0,43,0.00,,,-99.99,1240.000000,,2013-04-13 19:22:00,
2013-04-13 12:32:00,50.0,28.0,-100.00,WSW,244,9.0,22.0,43,0.00,,,-99.99,1240.000000,,2013-04-13 19:32:00,
2013-04-13 12:42:00,50.0,28.0,-100.00,WSW,244,9.0,22.0,43,0.00,,,-99.99,1240.000000,,2013-04-13 19:42:00,
2013-04-13 12:51:00,53.0,31.0,-100.00,SSW,211,5.0,19.0,42,0.00,,,0.00,1359.000000,,2013-04-13 19:51:00,
2013-04-13 13:22:00,53.0,31.0,-100.00,SSW,211,5.0,19.0,42,0.00,,,0.00,1359.000000,,2013-04-13 20:22:00,
2013-04-13 13:32:00,53.0,31.0,-100.00,SSW,211,5.0,19.0,42,0.00,,,0.00,1359.000000,,2013-04-13 20:32:00,
2013-04-13 13:42:00,53.0,31.0,-100.00,SSW,211,5.0,19.0,42,0.00,,,0.00,1359.000000,,2013-04-13 20:42:00,
2013-04-13 13:51:00,53.0,35.0,-100.00,WNW,283,6.0,16.0,50,0.00,,,-99.99,1375.000000,,2013-04-13 20:51:00,
2013-04-13 14:12:00,53.0,35.0,-100.00,WNW,283,6.0,16.0,50,0.00,,,-99.99,1375.000000,,2013-04-13 21:12:00,
2013-04-13 14:22:00,53.0,35.0,-100.00,WNW,283,6.0,16.0,50,0.00,,,-99.99,1375.000000,,2013-04-13 21:22:00,
2013-04-13 14:32:00,53.0,35.0,-100.00,WNW,283,6.0,16.0,50,0.00,,,-99.99,1375.000000,,2013-04-13 21:32:00,
2013-04-13 14:43:00,53.0,35.0,-100.00,WNW,283,6.0,16.0,50,0.00,,,-99.99,1375.000000,,2013-04-13 21:43:00,
2013-04-13 14:51:00,56.0,33.0,-100.00,WNW,288,4.0,17.0,42,0.00,,,0.00,1262.000000,,2013-04-13 21:51:00,
2013-04-13 15:22:00,56.0,33.0,-100.00,WNW,288,4.0,17.0,42,0.00,,,0.00,1262.000000,,2013-04-13 22:22:00,
2013-04-13 15:32:00,56.0,33.0,-100.00,WNW,288,4.0,17.0,42,0.00,,,0.00,1262.000000,,2013-04-13 22:32:00,
2013-04-13 15:42:00,56.0,33.0,-100.00,WNW,288,4.0,17.0,42,0.00,,,0.00,1262.000000,,2013-04-13 22:42:00,
2013-04-13 15:51:00,53.0,29.0,-100.00,West,280,5.0,13.0,40,0.00,,,0.00,1079.000000,,2013-04-13 22:51:00,
2013-04-13 16:12:00,53.0,29.0,-100.00,West,280,5.0,13.0,40,0.00,,,0.00,1079.000000,,2013-04-13 23:12:00,
2013-04-13 16:22:00,53.0,29.0,-100.00,West,280,5.0,13.0,40,0.00,,,0.00,1079.000000,,2013-04-13 23:22:00,
2013-04-13 16:32:00,53.0,29.0,-100.00,West,280,5.0,13.0,40,0.00,,,0.00,1079.000000,,2013-04-13 23:32:00,
2013-04-13 16:41:00,53.0,29.0,-100.00,West,280,5.0,13.0,40,0.00,,,0.00,1079.000000,,2013-04-13 23:41:00,
2013-04-13 16:51:00,52.0,30.0,-100.00,WNW,282,6.0,12.0,42,0.00,,,0.00,525.000000,,2013-04-13 23:51:00,
2013-04-13 17:12:00,52.0,30.0,-100.00,WNW,282,6.0,12.0,42,0.00,,,0.00,525.000000,,2013-04-14 00:12:00,
2013-04-13 17:22:00,52.0,30.0,-100.00,WNW,282,6.0,12.0,42,0.00,,,0.00,525.000000,,2013-04-14 00:22:00,
2013-04-13 17:32:00,52.0,30.0,-100.00,WNW,282,6.0,12.0,42,0.00,,,0.00,525.000000,,2013-04-14 00:32:00,
2013-04-13 17:42:00,52.0,30.0,-100.00,WNW,282,6.0,12.0,42,0.00,,,0.00,525.000000,,2013-04-14 00:42:00,
2013-04-13 17:51:00,48.0,28.0,-100.00,ENE,75,7.0,19.0,45,0.00,,,0.00,138.000000,,2013-04-14 00:51:00,
2013-04-13 18:12:00,48.0,28.0,-100.00,ENE,75,7.0,19.0,45,0.00,,,0.00,138.000000,,2013-04-14 01:12:00,
2013-04-13 18:22:00,48.0,28.0,-100.00,ENE,75,7.0,19.0,45,0.00,,,0.00,138.000000,,2013-04-14 01:22:00,
2013-04-13 18:32:00,48.0,28.0,-100.00,ENE,75,7.0,19.0,45,0.00,,,0.00,138.000000,,2013-04-14 01:32:00,
2013-04-13 18:42:00,48.0,28.0,-100.00,ENE,75,7.0,19.0,45,0.00,,,0.00,138.000000,,2013-04-14 01:42:00,
2013-04-13 18:51:00,47.0,27.0,-100.00,WSW,246,9.0,21.0,45,0.00,,,0.00,61.000000,,2013-04-14 01:51:00,
2013-04-13 19:22:00,47.0,27.0,-100.00,WSW,246,9.0,21.0,45,0.00,,,0.00,61.000000,,2013-04-14 02:22:00,
2013-04-13 19:32:00,47.0,27.0,-100.00,WSW,246,9.0,21.0,45,0.00,,,0.00,61.000000,,2013-04-14 02:32:00,
2013-04-13 19:42:00,47.0,27.0,-100.00,WSW,246,9.0,21.0,45,0.00,,,0.00,61.000000,,2013-04-14 02:42:00,
2013-04-13 19:51:00,43.0,27.0,-100.00,SE,130,13.0,30.0,53,0.00,,,0.00,11.000000,,2013-04-14 02:51:00,
2013-04-13 20:12:00,43.0,27.0,-100.00,SE,130,13.0,30.0,53,0.00,,,0.00,11.000000,,2013-04-14 03:12:00,
2013-04-13 20:22:00,43.0,27.0,-100.00,SE,130,13.0,30.0,53,0.00,,,0.00,11.000000,,2013-04-14 03:22:00,
2013-04-13 20:33:00,43.0,27.0,-100.00,SE,130,13.0,30.0,53,0.00,,,0.00,11.000000,,2013-04-14 03:33:00,
2013-04-13 20:42:00,43.0,27.0,-100.00,SE,130,13.0,30.0,53,0.00,,,0.00,11.000000,,2013-04-14 03:42:00,
2013-04-13 20:51:00,44.0,30.0,-100.00,NNE,13,12.0,31.0,57,0.00,,,0.00,0.000000,,2013-04-14 03:51:00,
2013-04-13 21:22:00,44.0,30.0,-100.00,NNE,13,12.0,31.0,57,0.00,,,0.00,0.000000,,2013-04-14 04:22:00,
2013-04-13 21:32:00,44.0,30.0,-100.00,NNE,13,12.0,31.0,57,0.00,,,0.00,0.000000,,2013-04-14 04:32:00,
2013-04-13 21:42:00,44.0,30.0,-100.00,NNE,13,12.0,31.0,57,0.00,,,0.00,0.000000,,2013-04-14 04:42:00,
2013-04-13 21:51:00,44.0,32.0,-100.00,SE,146,9.0,23.0,62,0.00,,,0.00,0.000000,,2013-04-14 04:51:00,
2013-04-13 22:12:00,44.0,32.0,-100.00,SE,146,9.0,23.0,62,0.00,,,0.00,0.000000,,2013-04-14 05:12:00,
2013-04-13 22:22:00,44.0,32.0,-100.00,SE,146,9.0,23.0,62,0.00,,,0.00,0.000000,,2013-04-14 05:22:00,
2013-04-13 22:32:00,44.0,32.0,-100.00,SE,146,9.0,23.0,62,0.00,,,0.00,0.000000,,2013-04-14 05:32:00,
2013-04-13 22:42:00,44.0,32.0,-100.00,SE,146,9.0,23.0,62,0.00,,,0.00,0.000000,,2013-04-14 05:42:00,
2013-04-13 22:51:00,42.0,31.0,-100.00,ESE,123,10.0,23.0,65,0.00,,,0.00,0.000000,,2013-04-14 05:51:00,
2013-04-13 23:22:00,42.0,31.0,-100.00,ESE,123,10.0,23.0,65,0.00,,,0.00,0.000000,,2013-04-14 06:22:00,
2013-04-13 23:32:00,42.0,31.0,-100.00,ESE,123,10.0,23.0,65,0.00,,,0.00,0.000000,,2013-04-14 06:32:00,
2013-04-13 23:42:00,42.0,31.0,-100.00,ESE,123,10.0,23.0,65,0.00,,,0.00,0.000000,,2013-04-14 06:42:00,
2013-04-13 23:51:00,42.0,32.0,-100.00,SW,214,9.0,18.0,68,0.00,,,0.00,0.000000,,2013-04-14 06:51:00,